,,Stat6,,Stat2,,Stat8,,Stat9,,Stat10,,Wind1,,Wind1,
time,status,PA1M_AVG,status,PR1M_SUM,status,RH1M_AVG,status,SR1M_AVG,status,TA1M_AVG,status,W1dAve1m,status,W1sAve1m,
2007-09-03, 00:00:00,VALID,918.464,VALID,0.2,VALID,100,VALID,-0.0509425,VALID,17.7127,VALID,157,VALID,0.977679,
2007-09-03, 00:01:00,VALID,918.437,VALID,0.4,VALID,100,VALID,-0.0169808,VALID,17.7224,VALID,156,VALID,1.43241,
2007-09-03, 00:02:00,VALID,918.424,VALID,0.4,VALID,100,VALID,-0.0169808,VALID,17.7029,VALID,148,VALID,0.966751,
2007-09-03, 00:03:00,VALID,918.419,VALID,0.2,VALID,100,VALID,-0.0339617,VALID,17.7326,VALID,161,VALID,0.787364,
2007-09-03, 00:04:00,VALID,918.416,VALID,0.2,VALID,100,VALID,-0.0169808,VALID,17.7356,VALID,164,VALID,1.09535,
2007-09-03, 00:05:00,VALID,918.424,VALID,0.2,VALID,100,VALID,-0.0169808,VALID,17.7356,VALID,149,VALID,1.31566,
2007-09-03, 00:06:00,VALID,918.423,VALID,0,VALID,100,VALID,-0.0169808,VALID,17.7356,VALID,153,VALID,0.911966,
2007-09-03, 00:07:00,VALID,918.419,VALID,0.2,VALID,100,VALID,0,VALID,17.7388,VALID,157,VALID,1.29033,
2007-09-03, 00:08:00,VALID,918.435,VALID,0.2,VALID,100,VALID,-0.0339617,VALID,17.7552,VALID,154,VALID,0.939986,
2007-09-03, 00:09:00,VALID,918.454,VALID,0,VALID,100,VALID,-0.0169808,VALID,17.7518,VALID,158,VALID,1.27553,
2007-09-03, 00:10:00,VALID,918.459,VALID,0.2,VALID,100,VALID,-0.0509425,VALID,17.7485,VALID,137,VALID,1.07866,
2007-09-03, 00:11:00,VALID,918.471,VALID,0.2,VALID,100,VALID,0,VALID,17.7323,VALID,152,VALID,1.21271,
2007-09-03, 00:12:00,VALID,918.468,VALID,0.2,VALID,100,VALID,0,VALID,17.7194,VALID,150,VALID,1.59635,
2007-09-03, 00:13:00,VALID,918.483,VALID,0,VALID,100,VALID,-0.0169808,VALID,17.7096,VALID,151,VALID,1.76315,
2007-09-03, 00:14:00,VALID,918.482,VALID,0.2,VALID,100,VALID,-0.0509425,VALID,17.6872,VALID,142,VALID,1.38654,
2007-09-03, 00:15:00,VALID,918.499,VALID,0,VALID,100,VALID,0,VALID,17.6807,VALID,147,VALID,0.882631,
2007-09-03, 00:16:00,VALID,918.51,VALID,0.2,VALID,100,VALID,0,VALID,17.6869,VALID,131,VALID,1.56287,
2007-09-03, 00:17:00,VALID,918.52,VALID,0,VALID,100,VALID,-0.0169808,VALID,17.6837,VALID,145,VALID,1.73828,
2007-09-03, 00:18:00,VALID,918.507,VALID,0.2,VALID,100,VALID,0,VALID,17.6705,VALID,139,VALID,1.57656,
2007-09-03, 00:19:00,VALID,918.495,VALID,0,VALID,100,VALID,0,VALID,17.6508,VALID,119,VALID,1.14717,
2007-09-03, 00:20:00,VALID,918.466,VALID,0.2,VALID,100,VALID,0,VALID,17.6545,VALID,140,VALID,0.877604,
2007-09-03, 00:21:00,VALID,918.436,VALID,0,VALID,100,VALID,0,VALID,17.6513,VALID,141,VALID,1.15574,
2007-09-03, 00:22:00,VALID,918.389,VALID,0,VALID,100,VALID,-0.0169808,VALID,17.6348,VALID,133,VALID,0.997093,
2007-09-03, 00:23:00,VALID,918.356,VALID,0,VALID,100,VALID,0,VALID,17.6221,VALID,136,VALID,0.510121,
2007-09-03, 00:24:00,VALID,918.339,VALID,0.2,VALID,100,VALID,-0.0169808,VALID,17.6154,VALID,149,VALID,0.679874,
2007-09-03, 00:25:00,VALID,918.311,VALID,0.4,VALID,100,VALID,-0.0169808,VALID,17.6124,VALID,153,VALID,0.742882,
2007-09-03, 00:26:00,VALID,918.303,VALID,0.6,VALID,100,VALID,-0.0509425,VALID,17.6188,VALID,156,VALID,0.80506,
2007-09-03, 00:27:00,VALID,918.302,VALID,0.4,VALID,100,VALID,0,VALID,17.6089,VALID,160,VALID,1.39379,
2007-09-03, 00:28:00,VALID,918.314,VALID,0.4,VALID,100,VALID,-0.0169808,VALID,17.6091,VALID,154,VALID,1.14474,
2007-09-03, 00:29:00,VALID,918.332,VALID,0.4,VALID,100,VALID,-0.0169808,VALID,17.6093,VALID,139,VALID,1.28289,
2007-09-03, 00:30:00,VALID,918.354,VALID,0.4,VALID,100,VALID,-0.0169808,VALID,17.5961,VALID,133,VALID,1.71763,
2007-09-03, 00:31:00,VALID,918.372,VALID,0.2,VALID,100,VALID,-0.0169808,VALID,17.5994,VALID,131,VALID,1.84884,
2007-09-03, 00:32:00,VALID,918.381,VALID,0,VALID,100,VALID,-0.0169808,VALID,17.6124,VALID,126,VALID,1.04334,
2007-09-03, 00:33:00,VALID,918.357,VALID,0.2,VALID,100,VALID,0.0169808,VALID,17.6059,VALID,138,VALID,1.19844,
2007-09-03, 00:34:00,VALID,918.334,VALID,0,VALID,100,VALID,-0.0169808,VALID,17.5961,VALID,151,VALID,1.16552,
2007-09-03, 00:35:00,VALID,918.318,VALID,0,VALID,100,VALID,-0.0169808,VALID,17.6031,VALID,146,VALID,1.38341,
2007-09-03, 00:36:00,VALID,918.299,VALID,0.2,VALID,100,VALID,-0.0169808,VALID,17.5832,VALID,158,VALID,1.30659,
2007-09-03, 00:37:00,VALID,918.279,VALID,0,VALID,100,VALID,0,VALID,17.5894,VALID,155,VALID,1.32866,
2007-09-03, 00:38:00,VALID,918.269,VALID,0.2,VALID,100,VALID,0,VALID,17.5992,VALID,149,VALID,1.12184,
2007-09-03, 00:39:00,VALID,918.276,VALID,0,VALID,100,VALID,-0.0169808,VALID,17.6156,VALID,135,VALID,0.827553,
2007-09-03, 00:40:00,VALID,918.272,VALID,0.2,VALID,100,VALID,-0.0169808,VALID,17.6221,VALID,126,VALID,0.921044,
2007-09-03, 00:41:00,VALID,918.273,VALID,0.4,VALID,100,VALID,-0.0509425,VALID,17.6288,VALID,136,VALID,1.1087,
2007-09-03, 00:42:00,VALID,918.274,VALID,0.2,VALID,100,VALID,-0.0169808,VALID,17.6158,VALID,138,VALID,1.51414,
2007-09-03, 00:43:00,VALID,918.263,VALID,0.4,VALID,100,VALID,-0.0509425,VALID,17.6124,VALID,157,VALID,1.12448,
2007-09-03, 00:44:00,VALID,918.265,VALID,0.6,VALID,100,VALID,-0.0169808,VALID,17.6156,VALID,147,VALID,0.940168,
2007-09-03, 00:45:00,VALID,918.246,VALID,0.4,VALID,100,VALID,0,VALID,17.6057,VALID,136,VALID,1.37221,
2007-09-03, 00:46:00,VALID,918.243,VALID,0.4,VALID,100,VALID,0,VALID,17.5994,VALID,143,VALID,1.2401,
2007-09-03, 00:47:00,VALID,918.254,VALID,0.4,VALID,100,VALID,0,VALID,17.6026,VALID,146,VALID,1.29805,
2007-09-03, 00:48:00,VALID,918.243,VALID,0.2,VALID,100,VALID,0,VALID,17.583,VALID,135,VALID,1.29288,
2007-09-03, 00:49:00,VALID,918.243,VALID,0.2,VALID,100,VALID,0,VALID,17.583,VALID,147,VALID,1.46399,
2007-09-03, 00:50:00,VALID,918.233,VALID,0.2,VALID,100,VALID,0.0169808,VALID,17.5767,VALID,148,VALID,1.85938,
2007-09-03, 00:51:00,VALID,918.224,VALID,0.2,VALID,100,VALID,-0.0169808,VALID,17.5438,VALID,149,VALID,2.51336,
2007-09-03, 00:52:00,VALID,918.204,VALID,0.4,VALID,100,VALID,-0.0509425,VALID,17.5313,VALID,157,VALID,2.03365,
2007-09-03, 00:53:00,VALID,918.2,VALID,0.2,VALID,100,VALID,0,VALID,17.5216,VALID,150,VALID,2.30541,
2007-09-03, 00:54:00,VALID,918.21,VALID,0,VALID,100,VALID,-0.0339617,VALID,17.5051,VALID,145,VALID,2.08687,
2007-09-03, 00:55:00,VALID,918.2,VALID,0.2,VALID,100,VALID,-0.0169808,VALID,17.4989,VALID,143,VALID,1.74077,
2007-09-03, 00:56:00,VALID,918.193,VALID,0.2,VALID,100,VALID,-0.0169808,VALID,17.4792,VALID,138,VALID,1.4979,
2007-09-03, 00:57:00,VALID,918.18,VALID,0,VALID,100,VALID,0,VALID,17.4634,VALID,154,VALID,1.88613,
2007-09-03, 00:58:00,VALID,918.162,VALID,0.2,VALID,100,VALID,-0.0169808,VALID,17.4373,VALID,143,VALID,1.71187,
2007-09-03, 00:59:00,VALID,918.142,VALID,0,VALID,100,VALID,0,VALID,17.434,VALID,152,VALID,1.87367,
2007-09-03, 01:00:00,VALID,918.133,VALID,0.2,VALID,100,VALID,0,VALID,17.4243,VALID,147,VALID,1.45033,
2007-09-03, 01:01:00,VALID,918.136,VALID,0.2,VALID,100,VALID,0,VALID,17.4273,VALID,144,VALID,1.71608,
2007-09-03, 01:02:00,VALID,918.117,VALID,0.2,VALID,100,VALID,0.0169808,VALID,17.42,VALID,149,VALID,2.04576,
2007-09-03, 01:03:00,VALID,918.129,VALID,0,VALID,100,VALID,0.0339617,VALID,17.4403,VALID,148,VALID,1.30208,
2007-09-03, 01:04:00,VALID,918.128,VALID,0.2,VALID,100,VALID,0.0169808,VALID,17.4533,VALID,139,VALID,1.29028,
2007-09-03, 01:05:00,VALID,918.127,VALID,0,VALID,100,VALID,0.0169808,VALID,17.4563,VALID,144,VALID,1.53498,
2007-09-03, 01:06:00,VALID,918.122,VALID,0.2,VALID,100,VALID,-0.0169808,VALID,17.4401,VALID,133,VALID,1.71166,
2007-09-03, 01:07:00,VALID,918.112,VALID,0.2,VALID,100,VALID,-0.101885,VALID,17.4418,VALID,146,VALID,1.36242,
2007-09-03, 01:08:00,VALID,918.089,VALID,0,VALID,100,VALID,-0.101885,VALID,17.4317,VALID,140,VALID,1.83316,
2007-09-03, 01:09:00,VALID,918.069,VALID,0.2,VALID,100,VALID,-0.101885,VALID,17.4384,VALID,132,VALID,1.70099,
2007-09-03, 01:10:00,VALID,918.048,VALID,0,VALID,100,VALID,-0.118866,VALID,17.4282,VALID,149,VALID,1.15572,
2007-09-03, 01:11:00,VALID,918.028,VALID,0.2,VALID,100,VALID,-0.101885,VALID,17.4384,VALID,141,VALID,1.53906,
2007-09-03, 01:12:00,VALID,918.005,VALID,0,VALID,100,VALID,-0.101885,VALID,17.4351,VALID,131,VALID,1.05877,
2007-09-03, 01:13:00,VALID,917.995,VALID,0.2,VALID,100,VALID,-0.118866,VALID,17.4418,VALID,134,VALID,1.51315,
2007-09-03, 01:14:00,VALID,917.976,VALID,0,VALID,100,VALID,-0.169808,VALID,17.4451,VALID,131,VALID,1.0093,
2007-09-03, 01:15:00,VALID,917.975,VALID,0.2,VALID,100,VALID,-0.0849042,VALID,17.4446,VALID,125,VALID,1.33789,
2007-09-03, 01:16:00,VALID,917.968,VALID,0,VALID,100,VALID,-0.118866,VALID,17.4483,VALID,118,VALID,0.996652,
2007-09-03, 01:17:00,VALID,917.959,VALID,0.2,VALID,100,VALID,-0.135847,VALID,17.4613,VALID,102,VALID,1.08926,
2007-09-03, 01:18:00,VALID,917.948,VALID,0,VALID,100,VALID,-0.101885,VALID,17.4581,VALID,106,VALID,1.72284,
2007-09-03, 01:19:00,VALID,917.946,VALID,0.2,VALID,100,VALID,-0.118866,VALID,17.4518,VALID,118,VALID,0.984908,
2007-09-03, 01:20:00,VALID,917.93,VALID,0,VALID,100,VALID,-0.135847,VALID,17.4421,VALID,136,VALID,1.10823,
2007-09-03, 01:21:00,VALID,917.904,VALID,0,VALID,100,VALID,-0.152827,VALID,17.4518,VALID,101,VALID,1.08705,
2007-09-03, 01:22:00,VALID,917.905,VALID,0.2,VALID,100,VALID,-0.0169808,VALID,17.4403,VALID,162,VALID,0.430043,
2007-09-03, 01:23:00,VALID,917.9,VALID,0,VALID,100,VALID,0,VALID,17.4632,VALID,149,VALID,0.331287,
2007-09-03, 01:24:00,VALID,917.91,VALID,0.2,VALID,100,VALID,0,VALID,17.46,VALID,126,VALID,0.782315,
2007-09-03, 01:25:00,VALID,917.897,VALID,0,VALID,100,VALID,-0.0339617,VALID,17.4401,VALID,140,VALID,0.724144,
2007-09-03, 01:26:00,VALID,917.882,VALID,0.2,VALID,100,VALID,-0.0169808,VALID,17.4535,VALID,88,VALID,0.353646,
2007-09-03, 01:27:00,VALID,917.869,VALID,0,VALID,100,VALID,0,VALID,17.4595,VALID,86,VALID,0.158913,
2007-09-03, 01:28:00,VALID,917.84,VALID,0,VALID,100,VALID,-0.0169808,VALID,17.4498,VALID,123,VALID,0.611285,
2007-09-03, 01:29:00,VALID,917.831,VALID,0.2,VALID,100,VALID,0,VALID,17.4396,VALID,119,VALID,0.360465,
2007-09-03, 01:30:00,VALID,917.814,VALID,0,VALID,100,VALID,0.0169808,VALID,17.4433,VALID,120,VALID,0.351944,
2007-09-03, 01:31:00,VALID,917.797,VALID,0.2,VALID,100,VALID,-0.0169808,VALID,17.4433,VALID,158,VALID,0.236506,
2007-09-03, 01:32:00,VALID,917.773,VALID,0,VALID,100,VALID,0,VALID,17.4531,VALID,159,VALID,0.801491,
2007-09-03, 01:33:00,VALID,917.769,VALID,0,VALID,100,VALID,0,VALID,17.4468,VALID,151,VALID,0.741016,
2007-09-03, 01:34:00,VALID,917.761,VALID,0.2,VALID,100,VALID,-0.0169808,VALID,17.4502,VALID,148,VALID,0.653764,
2007-09-03, 01:35:00,VALID,917.758,VALID,0,VALID,100,VALID,-0.0169808,VALID,17.444,VALID,153,VALID,0.757622,
2007-09-03, 01:36:00,VALID,917.745,VALID,0.2,VALID,100,VALID,-0.0169808,VALID,17.4371,VALID,151,VALID,0.906064,
2007-09-03, 01:37:00,VALID,917.757,VALID,0.2,VALID,100,VALID,-0.0849042,VALID,17.4347,VALID,145,VALID,0.83327,
2007-09-03, 01:38:00,VALID,917.734,VALID,0,VALID,100,VALID,-0.101885,VALID,17.4384,VALID,115,VALID,0.752096,
2007-09-03, 01:39:00,VALID,917.733,VALID,0.2,VALID,100,VALID,-0.0849042,VALID,17.4349,VALID,77,VALID,0.675509,
2007-09-03, 01:40:00,VALID,917.716,VALID,0.2,VALID,100,VALID,-0.135847,VALID,17.4449,VALID,78,VALID,0.722656,
2007-09-03, 01:41:00,VALID,917.686,VALID,0,VALID,100,VALID,-0.101885,VALID,17.4384,VALID,89,VALID,0.563058,
2007-09-03, 01:42:00,VALID,917.653,VALID,0.2,VALID,100,VALID,-0.101885,VALID,17.4152,VALID,118,VALID,1.05114,
2007-09-03, 01:43:00,VALID,917.632,VALID,0.2,VALID,100,VALID,-0.101885,VALID,17.4025,VALID,113,VALID,0.70293,
2007-09-03, 01:44:00,VALID,917.61,VALID,0,VALID,100,VALID,-0.0679233,VALID,17.412,VALID,107,VALID,0.265092,
2007-09-03, 01:45:00,VALID,917.603,VALID,0.2,VALID,100,VALID,-0.101885,VALID,17.4183,VALID,107,VALID,0.521577,
2007-09-03, 01:46:00,VALID,917.578,VALID,0,VALID,100,VALID,-0.101885,VALID,17.4055,VALID,107,VALID,0.477471,
2007-09-03, 01:47:00,VALID,917.574,VALID,0.2,VALID,100,VALID,-0.101885,VALID,17.4155,VALID,107,VALID,0.591025,
2007-09-03, 01:48:00,VALID,917.573,VALID,0.2,VALID,100,VALID,-0.101885,VALID,17.4116,VALID,90,VALID,0.644804,
2007-09-03, 01:49:00,VALID,917.555,VALID,0,VALID,100,VALID,-0.0849042,VALID,17.4276,VALID,84,VALID,0.71782,
2007-09-03, 01:50:00,VALID,917.564,VALID,0.2,VALID,100,VALID,-0.118866,VALID,17.4382,VALID,67,VALID,0.675495,
2007-09-03, 01:51:00,VALID,917.567,VALID,0.2,VALID,100,VALID,-0.0849042,VALID,17.4377,VALID,67,VALID,0.569382,
2007-09-03, 01:52:00,VALID,917.539,VALID,0.2,VALID,100,VALID,0.0169808,VALID,17.4271,VALID,58,VALID,0.818496,
2007-09-03, 01:53:00,VALID,917.499,VALID,0.2,VALID,100,VALID,0.0169808,VALID,17.4301,VALID,39,VALID,0.534598,
2007-09-03, 01:54:00,VALID,917.455,VALID,0.2,VALID,100,VALID,-0.0169808,VALID,17.4498,VALID,41,VALID,0.465511,
2007-09-03, 01:55:00,VALID,917.416,VALID,0,VALID,100,VALID,0,VALID,17.4401,VALID,43,VALID,0.543403,
2007-09-03, 01:56:00,VALID,917.379,VALID,0.2,VALID,100,VALID,0,VALID,17.4338,VALID,37,VALID,0.68564,
2007-09-03, 01:57:00,VALID,917.337,VALID,0.2,VALID,100,VALID,0.0169808,VALID,17.4074,VALID,30,VALID,0.514172,
2007-09-03, 01:58:00,VALID,917.299,VALID,0,VALID,100,VALID,0,VALID,17.4241,VALID,30,VALID,0.549543,
2007-09-03, 01:59:00,VALID,917.259,VALID,0.2,VALID,100,VALID,0,VALID,17.4077,VALID,30,VALID,0.422433,
2007-09-03, 02:00:00,VALID,917.237,VALID,0.2,VALID,100,VALID,0.0169808,VALID,17.4072,VALID,30,VALID,0.468387,
2007-09-03, 02:01:00,VALID,917.241,VALID,0.2,VALID,100,VALID,0.0169808,VALID,17.3912,VALID,30,VALID,0.376715,
2007-09-03, 02:02:00,VALID,917.22,VALID,0,VALID,100,VALID,0.0339617,VALID,17.3845,VALID,30,VALID,0.174479,
2007-09-03, 02:03:00,VALID,917.201,VALID,0.2,VALID,100,VALID,-0.0169808,VALID,17.404,VALID,30,VALID,0.189135,
2007-09-03, 02:04:00,VALID,917.178,VALID,0,VALID,100,VALID,0,VALID,17.388,VALID,30,VALID,0.14826,
2007-09-03, 02:05:00,VALID,917.184,VALID,0.2,VALID,100,VALID,0,VALID,17.3982,VALID,30,VALID,0.373094,
2007-09-03, 02:06:00,VALID,917.173,VALID,0,VALID,100,VALID,-0.0169808,VALID,17.372,VALID,30,VALID,0.393999,
2007-09-03, 02:07:00,VALID,917.16,VALID,0.2,VALID,100,VALID,-0.0509425,VALID,17.3926,VALID,30,VALID,0.26734,
2007-09-03, 02:08:00,VALID,917.156,VALID,0,VALID,100,VALID,-0.0849042,VALID,17.4215,VALID,30,VALID,0.377725,
2007-09-03, 02:09:00,VALID,917.15,VALID,0.2,VALID,100,VALID,-0.0679233,VALID,17.4146,VALID,32,VALID,0.365141,
2007-09-03, 02:10:00,VALID,917.164,VALID,0,VALID,100,VALID,-0.101885,VALID,17.4312,VALID,52,VALID,0.736471,
2007-09-03, 02:11:00,VALID,917.181,VALID,0,VALID,100,VALID,-0.0679233,VALID,17.3822,VALID,79,VALID,1.03579,
2007-09-03, 02:12:00,VALID,917.181,VALID,0.2,VALID,100,VALID,-0.0849042,VALID,17.3502,VALID,80,VALID,0.899346,
2007-09-03, 02:13:00,VALID,917.185,VALID,0,VALID,100,VALID,-0.0849042,VALID,17.3303,VALID,80,VALID,0.86859,
2007-09-03, 02:14:00,VALID,917.194,VALID,0.2,VALID,100,VALID,-0.101885,VALID,17.3247,VALID,84,VALID,0.582961,
2007-09-03, 02:15:00,VALID,917.195,VALID,0,VALID,100,VALID,-0.101885,VALID,17.3377,VALID,87,VALID,0.675876,
2007-09-03, 02:16:00,VALID,917.201,VALID,0.2,VALID,100,VALID,-0.0679233,VALID,17.3115,VALID,94,VALID,0.890625,
2007-09-03, 02:17:00,VALID,917.223,VALID,0,VALID,100,VALID,-0.0849042,VALID,17.302,VALID,99,VALID,0.776172,
2007-09-03, 02:18:00,VALID,917.224,VALID,0.2,VALID,100,VALID,-0.0509425,VALID,17.3076,VALID,95,VALID,0.96503,
2007-09-03, 02:19:00,VALID,917.236,VALID,0,VALID,100,VALID,-0.0849042,VALID,17.2948,VALID,92,VALID,1.21513,
2007-09-03, 02:20:00,VALID,917.248,VALID,0.2,VALID,100,VALID,-0.101885,VALID,17.2955,VALID,86,VALID,1.17132,
2007-09-03, 02:21:00,VALID,917.25,VALID,0,VALID,100,VALID,-0.0849042,VALID,17.2858,VALID,97,VALID,1.07969,
2007-09-03, 02:22:00,VALID,917.242,VALID,0,VALID,100,VALID,0,VALID,17.2711,VALID,102,VALID,0.808503,
2007-09-03, 02:23:00,VALID,917.231,VALID,0,VALID,100,VALID,0.0169808,VALID,17.2778,VALID,106,VALID,0.791667,
2007-09-03, 02:24:00,VALID,917.214,VALID,0.2,VALID,100,VALID,0,VALID,17.2743,VALID,110,VALID,1.09297,
2007-09-03, 02:25:00,VALID,917.191,VALID,0,VALID,100,VALID,0,VALID,17.2711,VALID,109,VALID,0.763626,
2007-09-03, 02:26:00,VALID,917.168,VALID,0,VALID,100,VALID,0,VALID,17.2838,VALID,99,VALID,0.80522,
2007-09-03, 02:27:00,VALID,917.136,VALID,0,VALID,100,VALID,0.0169808,VALID,17.2903,VALID,89,VALID,0.515053,
2007-09-03, 02:28:00,VALID,917.116,VALID,0,VALID,100,VALID,0.0169808,VALID,17.31,VALID,88,VALID,0.485263,
2007-09-03, 02:29:00,VALID,917.085,VALID,0,VALID,100,VALID,0,VALID,17.3104,VALID,88,VALID,0.415931,
2007-09-03, 02:30:00,VALID,917.051,VALID,0.2,VALID,100,VALID,0.0169808,VALID,17.3035,VALID,88,VALID,0.330788,
2007-09-03, 02:31:00,VALID,917.013,VALID,0,VALID,100,VALID,0,VALID,17.3164,VALID,86,VALID,0.226357,
2007-09-03, 02:32:00,VALID,916.975,VALID,0,VALID,100,VALID,0.0169808,VALID,17.326,VALID,86,VALID,0.116386,
2007-09-03, 02:33:00,VALID,916.918,VALID,0,VALID,100,VALID,0,VALID,17.3424,VALID,86,VALID,0,
2007-09-03, 02:34:00,VALID,916.887,VALID,0,VALID,100,VALID,0,VALID,17.3595,VALID,86,VALID,0,
2007-09-03, 02:35:00,VALID,916.838,VALID,0,VALID,100,VALID,0,VALID,17.3653,VALID,86,VALID,0.121626,
2007-09-03, 02:36:00,VALID,916.788,VALID,0.2,VALID,100,VALID,0.0169808,VALID,17.3456,VALID,86,VALID,0.415396,
2007-09-03, 02:37:00,VALID,916.765,VALID,0,VALID,100,VALID,0,VALID,17.3394,VALID,86,VALID,0.551897,
2007-09-03, 02:38:00,VALID,916.732,VALID,0,VALID,100,VALID,0,VALID,17.3519,VALID,85,VALID,0.395712,
2007-09-03, 02:39:00,VALID,916.718,VALID,0,VALID,100,VALID,0.0169808,VALID,17.3783,VALID,85,VALID,0.13157,
2007-09-03, 02:40:00,VALID,916.712,VALID,0,VALID,100,VALID,0.0339617,VALID,17.391,VALID,85,VALID,0,
2007-09-03, 02:41:00,VALID,916.706,VALID,0,VALID,100,VALID,0.0509425,VALID,17.3975,VALID,85,VALID,0,
2007-09-03, 02:42:00,VALID,916.7,VALID,0.2,VALID,100,VALID,-0.0169808,VALID,17.3878,VALID,85,VALID,0,
2007-09-03, 02:43:00,VALID,916.684,VALID,0,VALID,100,VALID,0.0169808,VALID,17.4005,VALID,85,VALID,0,
2007-09-03, 02:44:00,VALID,916.661,VALID,0,VALID,100,VALID,0.0169808,VALID,17.3938,VALID,85,VALID,0,
2007-09-03, 02:45:00,VALID,916.675,VALID,0,VALID,100,VALID,0.0169808,VALID,17.4038,VALID,85,VALID,0,
2007-09-03, 02:46:00,VALID,916.666,VALID,0,VALID,100,VALID,0,VALID,17.4139,VALID,85,VALID,0.0554142,
2007-09-03, 02:47:00,VALID,916.684,VALID,0,VALID,100,VALID,0,VALID,17.4237,VALID,85,VALID,0.383176,
2007-09-03, 02:48:00,VALID,916.693,VALID,0,VALID,100,VALID,0,VALID,17.3943,VALID,86,VALID,0.609747,
2007-09-03, 02:49:00,VALID,916.693,VALID,0,VALID,100,VALID,0,VALID,17.3584,VALID,97,VALID,0.799733,
2007-09-03, 02:50:00,VALID,916.722,VALID,0,VALID,100,VALID,0.0339617,VALID,17.3227,VALID,110,VALID,0.895008,
2007-09-03, 02:51:00,VALID,916.738,VALID,0,VALID,100,VALID,-0.0169808,VALID,17.3236,VALID,113,VALID,0.970749,
2007-09-03, 02:52:00,VALID,916.737,VALID,0,VALID,100,VALID,-0.118866,VALID,17.3217,VALID,93,VALID,1.04669,
2007-09-03, 02:53:00,VALID,916.748,VALID,0,VALID,100,VALID,-0.0849042,VALID,17.3208,VALID,85,VALID,1.02715,
2007-09-03, 02:54:00,VALID,916.722,VALID,0,VALID,100,VALID,-0.0849042,VALID,17.3143,VALID,80,VALID,1.18767,
2007-09-03, 02:55:00,VALID,916.7,VALID,0,VALID,100,VALID,-0.118866,VALID,17.2985,VALID,54,VALID,1.14825,
2007-09-03, 02:56:00,VALID,916.678,VALID,0,VALID,100,VALID,-0.101885,VALID,17.2985,VALID,50,VALID,0.823242,
2007-09-03, 02:57:00,VALID,916.647,VALID,0,VALID,100,VALID,-0.101885,VALID,17.2979,VALID,37,VALID,0.55957,
2007-09-03, 02:58:00,VALID,916.621,VALID,0,VALID,100,VALID,-0.0849042,VALID,17.2983,VALID,37,VALID,0.448583,
2007-09-03, 02:59:00,VALID,916.604,VALID,0,VALID,100,VALID,-0.118866,VALID,17.2983,VALID,40,VALID,0.594638,
2007-09-03, 03:00:00,VALID,916.597,VALID,0,VALID,100,VALID,-0.0849042,VALID,17.3147,VALID,41,VALID,0.244048,
2007-09-03, 03:01:00,VALID,916.594,VALID,0,VALID,100,VALID,-0.135847,VALID,17.3147,VALID,42,VALID,0.181402,
2007-09-03, 03:02:00,VALID,916.598,VALID,0,VALID,100,VALID,-0.118866,VALID,17.3217,VALID,42,VALID,0.261719,
2007-09-03, 03:03:00,VALID,916.601,VALID,0,VALID,100,VALID,-0.135847,VALID,17.2951,VALID,56,VALID,0.393043,
2007-09-03, 03:04:00,VALID,916.599,VALID,0,VALID,100,VALID,-0.101885,VALID,17.2687,VALID,73,VALID,0.408727,
2007-09-03, 03:05:00,VALID,916.594,VALID,0,VALID,100,VALID,-0.118866,VALID,17.2691,VALID,73,VALID,0.457403,
2007-09-03, 03:06:00,VALID,916.587,VALID,0,VALID,100,VALID,-0.101885,VALID,17.2596,VALID,76,VALID,0.586293,
2007-09-03, 03:07:00,VALID,916.581,VALID,0,VALID,100,VALID,-0.0169808,VALID,17.2484,VALID,95,VALID,0.748828,
2007-09-03, 03:08:00,VALID,916.594,VALID,0,VALID,100,VALID,0.0339617,VALID,17.2451,VALID,101,VALID,0.832532,
2007-09-03, 03:09:00,VALID,916.613,VALID,0,VALID,100,VALID,0,VALID,17.2484,VALID,124,VALID,0.811458,
2007-09-03, 03:10:00,VALID,916.624,VALID,0,VALID,100,VALID,0.0169808,VALID,17.2352,VALID,129,VALID,0.872142,
2007-09-03, 03:11:00,VALID,916.642,VALID,0,VALID,100,VALID,0,VALID,17.2352,VALID,131,VALID,0.778088,
2007-09-03, 03:12:00,VALID,916.647,VALID,0,VALID,100,VALID,0,VALID,17.2518,VALID,128,VALID,0.993331,
2007-09-03, 03:13:00,VALID,916.652,VALID,0,VALID,100,VALID,0,VALID,17.2652,VALID,125,VALID,0.62466,
2007-09-03, 03:14:00,VALID,916.655,VALID,0,VALID,100,VALID,0,VALID,17.2719,VALID,127,VALID,0.72061,
2007-09-03, 03:15:00,VALID,916.647,VALID,0,VALID,100,VALID,0.0169808,VALID,17.2648,VALID,137,VALID,0.754464,
2007-09-03, 03:16:00,VALID,916.623,VALID,0,VALID,100,VALID,-0.0169808,VALID,17.2812,VALID,155,VALID,0.937109,
2007-09-03, 03:17:00,VALID,916.61,VALID,0,VALID,100,VALID,0.0169808,VALID,17.2871,VALID,161,VALID,0.729789,
2007-09-03, 03:18:00,VALID,916.613,VALID,0,VALID,100,VALID,0,VALID,17.3035,VALID,158,VALID,0.816761,
2007-09-03, 03:19:00,VALID,916.626,VALID,0,VALID,100,VALID,0,VALID,17.3134,VALID,157,VALID,0.652071,
2007-09-03, 03:20:00,VALID,916.618,VALID,0,VALID,100,VALID,0,VALID,17.3095,VALID,139,VALID,0.36101,
2007-09-03, 03:21:00,VALID,916.637,VALID,0,VALID,100,VALID,-0.0169808,VALID,17.3139,VALID,139,VALID,0.479167,
2007-09-03, 03:22:00,VALID,916.617,VALID,0,VALID,100,VALID,-0.0849042,VALID,17.3013,VALID,139,VALID,0.537202,
2007-09-03, 03:23:00,VALID,916.615,VALID,0,VALID,100,VALID,-0.0679233,VALID,17.3018,VALID,139,VALID,0.23383,
2007-09-03, 03:24:00,VALID,916.621,VALID,0,VALID,100,VALID,-0.0679233,VALID,17.2946,VALID,139,VALID,0.276155,
2007-09-03, 03:25:00,VALID,916.627,VALID,0,VALID,100,VALID,-0.0679233,VALID,17.3018,VALID,139,VALID,0.157584,
2007-09-03, 03:26:00,VALID,916.663,VALID,0,VALID,100,VALID,-0.101885,VALID,17.2951,VALID,139,VALID,0.137251,
2007-09-03, 03:27:00,VALID,916.687,VALID,0,VALID,100,VALID,-0.101885,VALID,17.2955,VALID,138,VALID,0.982813,
2007-09-03, 03:28:00,VALID,916.737,VALID,0,VALID,100,VALID,-0.0679233,VALID,17.2789,VALID,126,VALID,1.19863,
2007-09-03, 03:29:00,VALID,916.764,VALID,0,VALID,100,VALID,-0.0169808,VALID,17.2624,VALID,112,VALID,1.04865,
2007-09-03, 03:30:00,VALID,916.791,VALID,0,VALID,100,VALID,-0.0509425,VALID,17.2691,VALID,95,VALID,0.910061,
2007-09-03, 03:31:00,VALID,916.808,VALID,0,VALID,100,VALID,-0.0509425,VALID,17.2793,VALID,99,VALID,0.763148,
2007-09-03, 03:32:00,VALID,916.796,VALID,0,VALID,100,VALID,-0.0849042,VALID,17.2691,VALID,99,VALID,0.271723,
2007-09-03, 03:33:00,VALID,916.76,VALID,0,VALID,100,VALID,-0.0509425,VALID,17.2566,VALID,117,VALID,0.594512,
2007-09-03, 03:34:00,VALID,916.746,VALID,0,VALID,100,VALID,-0.0679233,VALID,17.2534,VALID,121,VALID,0.406436,
2007-09-03, 03:35:00,VALID,916.737,VALID,0,VALID,100,VALID,-0.0509425,VALID,17.2559,VALID,148,VALID,0.742932,
2007-09-03, 03:36:00,VALID,916.73,VALID,0,VALID,100,VALID,-0.0679233,VALID,17.2624,VALID,155,VALID,0.678234,
2007-09-03, 03:37:00,VALID,916.734,VALID,0,VALID,100,VALID,-0.0849042,VALID,17.2689,VALID,150,VALID,0.709666,
2007-09-03, 03:38:00,VALID,916.733,VALID,0,VALID,100,VALID,-0.0679233,VALID,17.2758,VALID,123,VALID,0.970796,
2007-09-03, 03:39:00,VALID,916.743,VALID,0,VALID,100,VALID,-0.0679233,VALID,17.2596,VALID,122,VALID,0.837271,
2007-09-03, 03:40:00,VALID,916.753,VALID,0,VALID,100,VALID,-0.101885,VALID,17.2568,VALID,118,VALID,0.994234,
2007-09-03, 03:41:00,VALID,916.769,VALID,0,VALID,100,VALID,-0.101885,VALID,17.2501,VALID,116,VALID,1.02071,